Elbow Lake, MN

11:09 PM CDT on August 24, 2016 (GMT -0500)
Elbow Lake

Weather History for KY63 - October, 2012

Change the Weather History Date:

Thursday, October 18, 2012

  Actual Average (KFFM) Record (KFFM)
Temperature  
Mean Temperature 44 °F -  
Max Temperature 46 °F 54 °F 93 °F (2011)
Min Temperature 41 °F 32 °F 13 °F (1972)
Degree Days  
Heating Degree Days 22    
Moisture  
Dew Point 42 °F    
Average Humidity 97    
Maximum Humidity 100    
Minimum Humidity 93    
Precipitation  
Precipitation 0.16 in - - ()
Sea Level Pressure  
Sea Level Pressure 29.26 in    
Wind  
Wind Speed 17 mph (NW)    
Max Wind Speed 33 mph    
Max Gust Speed 44 mph    
Visibility 5 miles    
Events Rain    
Averages and records for this station are not official NWS values.
T = Trace of Precipitation, MM = Missing Value Source: NWS Daily Summary

Daily Weather History Graph

Daily Weather History Graph

Search for Another Location

Airport or City:

Trip Planner

Search our weather history database for the weather conditions in past years. The results will help you decide how hot, cold, wet, or windy it might be!

Date:

Astronomy

Oct. 18, 2012 Rise Set
Actual Time 7:45 AM CDT 6:31 PM CDT
Civil Twilight 7:15 AM CDT 7:01 PM CDT
Nautical Twilight 6:40 AM CDT 7:36 PM CDT
Astronomical Twilight 6:05 AM CDT 8:11 PM CDT
Moon 11:40 AM CDT (10/18) 8:55 PM CDT (10/18)
Length of Visible Light 11h 46m
Length of Day
10h 46m
Waxing Crescent, 14% of the Moon is Illuminated
Oct 18
Waxing Crescent
Oct 21
First Quarter
Oct 29
Full
Nov 6
Last Quarter
Nov 13
New

Hourly Weather History & Observations

Time (CDT) Temp. Windchill Dew Point Humidity Pressure Visibility Wind Dir Wind Speed Gust Speed Precip Events Conditions
12:15 AM 41.0 °F 32.5 °F 39.2 °F 93% 29.22 in 10.0 mi West 17.3 mph 25.3 mph N/A   Overcast
12:35 AM 41.0 °F 33.1 °F 39.2 °F 93% 29.22 in 10.0 mi West 15.0 mph - N/A   Overcast
12:55 AM 41.0 °F 32.2 °F 39.2 °F 93% 29.21 in 10.0 mi West 18.4 mph 25.3 mph N/A   Overcast
1:35 AM 41.0 °F 32.5 °F 39.2 °F 93% 29.21 in 3.0 mi West 17.3 mph 21.9 mph N/A   Overcast
1:55 AM 41.0 °F 33.5 °F 39.2 °F 93% 29.21 in 3.0 mi West 13.8 mph - N/A   Overcast
2:15 AM 41.0 °F 33.1 °F 39.2 °F 93% 29.20 in 2.5 mi West 15.0 mph - N/A   Overcast
2:35 AM 41.0 °F 33.1 °F 39.2 °F 93% 29.19 in 2.5 mi West 15.0 mph 18.4 mph N/A   Light Drizzle
2:55 AM 41.0 °F 33.1 °F 41.0 °F 100% 29.18 in 2.5 mi West 15.0 mph - N/A Rain Light Rain
3:15 AM 41.0 °F 33.9 °F 41.0 °F 100% 29.18 in 3.0 mi West 12.7 mph 20.7 mph N/A   Light Drizzle
3:35 AM 41.0 °F 33.1 °F 41.0 °F 100% 29.17 in 4.0 mi West 15.0 mph 20.7 mph N/A   Overcast
3:55 AM 41.0 °F 33.9 °F 41.0 °F 100% 29.17 in 3.0 mi West 12.7 mph - N/A   Overcast
4:15 AM 41.0 °F 33.9 °F 41.0 °F 100% 29.16 in 3.0 mi West 12.7 mph 19.6 mph N/A   Overcast
4:35 AM 41.0 °F 34.3 °F 41.0 °F 100% 29.16 in 2.5 mi West 11.5 mph - N/A   Overcast
4:55 AM 41.0 °F 33.5 °F 41.0 °F 100% 29.16 in 2.5 mi West 13.8 mph - N/A   Overcast
5:15 AM 42.8 °F 36.2 °F 41.0 °F 93% 29.16 in 3.0 mi WNW 12.7 mph 21.9 mph N/A   Overcast
5:35 AM 42.8 °F 36.2 °F 42.8 °F 100% 29.15 in 3.0 mi WNW 12.7 mph 19.6 mph N/A   Drizzle
5:55 AM 42.8 °F 36.2 °F 42.8 °F 100% 29.15 in 2.5 mi WNW 12.7 mph 17.3 mph N/A   Light Drizzle
6:15 AM 42.8 °F 35.8 °F 42.8 °F 100% 29.15 in 3.0 mi WNW 13.8 mph - N/A   Overcast
6:35 AM 42.8 °F 36.2 °F 42.8 °F 100% 29.15 in 3.0 mi WNW 12.7 mph - N/A   Overcast
6:55 AM 42.8 °F 35.1 °F 42.8 °F 100% 29.15 in 3.0 mi NW 16.1 mph - N/A   Overcast
7:15 AM 42.8 °F 35.1 °F 42.8 °F 100% 29.15 in 2.5 mi NW 16.1 mph - N/A   Overcast
7:35 AM 42.8 °F 35.4 °F 41.0 °F 93% 29.15 in 2.5 mi NW 15.0 mph 21.9 mph N/A   Overcast
7:55 AM 42.8 °F 35.4 °F 41.0 °F 93% 29.15 in 3.0 mi NW 15.0 mph - N/A   Overcast
8:15 AM 42.8 °F 36.2 °F 42.8 °F 100% 29.15 in 2.5 mi NW 12.7 mph - N/A   Overcast
8:35 AM 42.8 °F 35.8 °F 42.8 °F 100% 29.15 in 1.5 mi NW 13.8 mph - N/A   Overcast
9:15 AM 42.8 °F 36.6 °F 42.8 °F 100% 29.16 in 3.0 mi NW 11.5 mph - N/A   Overcast
9:35 AM 42.8 °F 36.6 °F 42.8 °F 100% 29.17 in 7.0 mi NNW 11.5 mph - N/A   Overcast
9:55 AM 42.8 °F 37.0 °F 42.8 °F 100% 29.18 in 1.8 mi North 10.4 mph - N/A   Overcast
10:15 AM 44.6 °F 39.7 °F 44.6 °F 100% 29.18 in 1.2 mi North 9.2 mph - N/A   Overcast
10:35 AM 44.6 °F 38.4 °F 44.6 °F 100% 29.19 in 2.0 mi ENE 12.7 mph - N/A   Overcast
11:15 AM 44.6 °F 38.8 °F 42.8 °F 93% 29.23 in 10.0 mi NNE 11.5 mph - N/A   Overcast
11:35 AM 44.6 °F 38.8 °F 42.8 °F 93% 29.24 in 10.0 mi NNE 11.5 mph 16.1 mph N/A   Light Drizzle
11:55 AM 42.8 °F 37.0 °F 42.8 °F 100% 29.26 in 10.0 mi NNE 10.4 mph 16.1 mph N/A   Light Drizzle
12:15 PM 42.8 °F 36.6 °F 41.0 °F 93% 29.27 in 7.0 mi North 11.5 mph - N/A Rain Light Rain
12:35 PM 42.8 °F 36.2 °F 42.8 °F 100% 29.28 in 7.0 mi North 12.7 mph - 0.02 in Rain Rain
12:55 PM 42.8 °F 36.6 °F 42.8 °F 100% 29.29 in 5.0 mi NNW 11.5 mph - 0.03 in Rain Light Rain
1:15 PM 44.6 °F 38.1 °F 42.8 °F 93% 29.30 in 4.0 mi NNW 13.8 mph - 0.01 in Rain Light Rain
1:35 PM 44.6 °F 38.1 °F 42.8 °F 93% 29.29 in 7.0 mi NW 13.8 mph - 0.01 in Rain Light Rain
1:55 PM 44.6 °F 36.9 °F 42.8 °F 93% 29.30 in 7.0 mi NW 18.4 mph 24.2 mph 0.02 in Rain Light Rain
2:15 PM 44.6 °F 37.2 °F 42.8 °F 93% 29.30 in 7.0 mi NW 17.3 mph - N/A   Drizzle
2:35 PM 44.6 °F 37.2 °F 44.6 °F 100% 29.30 in 7.0 mi NW 17.3 mph - 0.01 in Rain Rain
2:55 PM 44.6 °F 37.2 °F 44.6 °F 100% 29.30 in 7.0 mi NW 17.3 mph - 0.02 in Rain Light Rain
3:15 PM 46.4 °F 37.2 °F 44.6 °F 93% 29.30 in 5.0 mi NW 29.9 mph 36.8 mph 0.01 in   Drizzle
3:35 PM 46.4 °F 37.7 °F 44.6 °F 93% 29.30 in 7.0 mi NW 26.5 mph 40.3 mph 0.02 in   Drizzle
3:55 PM 44.6 °F 35.3 °F 42.8 °F 93% 29.30 in 5.0 mi NW 26.5 mph 40.3 mph 0.02 in   Drizzle
4:15 PM 44.6 °F 34.4 °F 42.8 °F 93% 29.31 in 5.0 mi NW 32.2 mph 43.7 mph N/A   Drizzle
4:35 PM 44.6 °F 35.1 °F 42.8 °F 93% 29.32 in 5.0 mi NW 27.6 mph 40.3 mph N/A Rain Rain
5:15 PM 44.6 °F 35.7 °F 42.8 °F 93% 29.33 in 5.0 mi NNW 24.2 mph 38.0 mph 0.01 in Rain Rain
5:35 PM 44.6 °F 34.7 °F 42.8 °F 93% 29.33 in 5.0 mi NNW 29.9 mph 43.7 mph 0.02 in Rain Rain
5:55 PM 44.6 °F 34.2 °F 42.8 °F 93% 29.34 in 5.0 mi NNW 33.4 mph 40.3 mph 0.03 in Rain Light Rain
6:15 PM 42.8 °F 32.7 °F 42.8 °F 100% 29.35 in 5.0 mi NNW 27.6 mph 40.3 mph 0.01 in Rain Rain
6:35 PM 42.8 °F 32.5 °F 42.8 °F 100% 29.35 in 7.0 mi NNW 28.8 mph 39.1 mph 0.02 in Rain Light Rain
6:55 PM 42.8 °F 32.7 °F 42.8 °F 100% 29.36 in 7.0 mi NNW 27.6 mph 36.8 mph 0.03 in Rain Light Rain
7:15 PM 42.8 °F 32.9 °F 42.8 °F 100% 29.37 in 7.0 mi NNW 26.5 mph 38.0 mph N/A Rain Light Rain
7:35 PM 42.8 °F 32.3 °F 42.8 °F 100% 29.37 in 5.0 mi NNW 29.9 mph 38.0 mph 0.01 in Rain Light Rain
7:55 PM 42.8 °F 32.5 °F 42.8 °F 100% 29.38 in 5.0 mi NNW 28.8 mph 34.5 mph 0.01 in Rain Light Rain
8:15 PM 42.8 °F 31.9 °F 42.8 °F 100% 29.39 in 5.0 mi NNW 32.2 mph 39.1 mph N/A Rain Light Rain
8:35 PM 42.8 °F 32.9 °F 42.8 °F 100% 29.39 in 7.0 mi NNW 26.5 mph 34.5 mph N/A   Overcast
8:55 PM 42.8 °F 32.9 °F 41.0 °F 93% 29.40 in 5.0 mi NNW 26.5 mph 35.7 mph N/A Rain Light Rain
9:15 PM 42.8 °F 33.1 °F 41.0 °F 93% 29.41 in 4.0 mi NNW 25.3 mph 36.8 mph N/A Rain Light Rain
9:35 PM 42.8 °F 32.7 °F 41.0 °F 93% 29.41 in 3.0 mi NNW 27.6 mph 35.7 mph N/A Rain Light Rain
9:55 PM 42.8 °F 33.1 °F 41.0 °F 93% 29.42 in 4.0 mi NNW 25.3 mph 33.4 mph N/A Rain Light Rain
10:15 PM 42.8 °F 33.3 °F 41.0 °F 93% 29.42 in 3.0 mi NNW 24.2 mph 33.4 mph N/A Rain Light Rain
10:35 PM 42.8 °F 32.7 °F 41.0 °F 93% 29.44 in 3.0 mi NNW 27.6 mph 34.5 mph N/A Rain Light Rain